Weather History for New Orleans, LA

Change the Weather History Date:

Thursday, November 1, 2012

  Actual Average Record
Temperature  
Mean Temperature 67 °F -  
Max Temperature 77 °F 76 °F 85 °F (1971)
Min Temperature 57 °F 56 °F 31 °F (1993)
Cooling Degree Days 2    
Growing Degree Days 17 (Base 50)    
Moisture  
Dew Point 58 °F    
Average Humidity 74    
Maximum Humidity 100    
Minimum Humidity 43    
Precipitation  
Precipitation 0.00 in - - ()
Sea Level Pressure  
Sea Level Pressure 30.04 in    
Wind  
Wind Speed 5 mph (NW)    
Max Wind Speed 10 mph    
Max Gust Speed -    
Visibility 8 miles    
Events Fog    
Averages and records for this station are not official NWS values.
T = Trace of Precipitation, MM = Missing Value Source: NWS Daily Summary

Daily Weather History Graph

Daily Weather History Graph

Search for Another Location

Airport:

Trip Planner

Search our weather history database for the weather conditions in past years. The results will help you decide how hot, cold, wet, or windy it might be!

Date:

Astronomy

Nov. 01, 2012 Rise Set
Actual Time 7:15 AM CDT 6:13 PM CDT
Civil Twilight 6:50 AM CDT 6:38 PM CDT
Nautical Twilight 6:22 AM CDT 7:06 PM CDT
Astronomical Twilight 5:54 AM CDT 7:34 PM CDT
Moon 8:19 PM CDT (11/1) 9:39 AM CDT (11/1)
Length of Visible Light 11h 47m
Length of Day
10h 58m
Waning Gibbous, 93% of the Moon is Illuminated
Nov 1
Waning Gibbous
Nov 6
Last Quarter
Nov 13
New
Nov 20
First Quarter
Nov 28
Full

Hourly Weather History & Observations

Time (CDT) Temp. Dew Point Humidity Pressure Visibility Wind Dir Wind Speed Gust Speed Precip Events Conditions
12:53 AM 64.0 °F 59.0 °F 84% 30.01 in 10.0 mi SW 6.9 mph - N/A   Partly Cloudy
1:53 AM 64.9 °F 60.1 °F 84% 30.01 in 10.0 mi WSW 10.4 mph - N/A   Scattered Clouds
2:53 AM 63.0 °F 60.1 °F 90% 30.01 in 10.0 mi West 5.8 mph - N/A   Scattered Clouds
3:53 AM 61.0 °F 59.0 °F 93% 30.02 in 10.0 mi West 4.6 mph - N/A   Partly Cloudy
4:53 AM 60.1 °F 57.9 °F 93% 30.02 in 6.0 mi West 5.8 mph - N/A   Clear
5:53 AM 59.0 °F 57.9 °F 96% 30.03 in 5.0 mi West 5.8 mph - N/A   Clear
6:53 AM 59.0 °F 57.9 °F 96% 30.04 in 2.5 mi WNW 3.5 mph - N/A   Clear
7:00 AM 57.2 °F 57.2 °F 100% 30.03 in 3.0 mi WNW 3.5 mph - N/A   Clear
7:12 AM 57.2 °F 57.2 °F 100% 30.04 in 3.0 mi West 3.5 mph - N/A Fog Shallow Fog
7:53 AM 60.1 °F 59.0 °F 96% 30.06 in 3.0 mi Calm Calm - N/A Fog Shallow Fog
8:53 AM 63.0 °F 61.0 °F 93% 30.08 in 5.0 mi NNW 4.6 mph - N/A   Scattered Clouds
9:53 AM 66.0 °F 60.1 °F 81% 30.09 in 10.0 mi North 5.8 mph - N/A   Clear
10:53 AM 69.1 °F 57.0 °F 65% 30.10 in 10.0 mi NE 8.1 mph - N/A   Clear
11:53 AM 72.0 °F 57.0 °F 59% 30.09 in 10.0 mi NE 5.8 mph - N/A   Clear
12:53 PM 73.4 °F 55.4 °F 53% 30.06 in 10.0 mi NNE 5.8 mph - N/A   Clear
1:53 PM 75.0 °F 55.9 °F 51% 30.04 in 10.0 mi NNE 5.8 mph - N/A   Partly Cloudy
2:51 PM 75.2 °F 55.4 °F 50% 30.01 in 10.0 mi North 6.9 mph - N/A   Mostly Cloudy
2:53 PM 75.2 °F 55.4 °F 50% 30.02 in 10.0 mi North 5.8 mph - N/A   Mostly Cloudy
3:53 PM 77.0 °F 55.4 °F 47% 30.00 in 10.0 mi North 5.8 mph - N/A   Mostly Cloudy
4:17 PM 75.2 °F 55.4 °F 50% 30.00 in 10.0 mi Calm Calm - N/A   Scattered Clouds
4:53 PM 75.9 °F 55.9 °F 50% 30.01 in 10.0 mi North 4.6 mph - N/A   Scattered Clouds
5:53 PM 71.1 °F 54.0 °F 55% 30.01 in 10.0 mi NE 3.5 mph - N/A   Partly Cloudy
6:53 PM 69.8 °F 53.6 °F 56% 30.03 in 10.0 mi Calm Calm - N/A   Partly Cloudy
7:53 PM 68.0 °F 57.9 °F 70% 30.04 in 10.0 mi SE 4.6 mph - N/A   Clear
8:53 PM 66.0 °F 59.0 °F 78% 30.05 in 10.0 mi SSE 5.8 mph - N/A   Clear
9:53 PM 64.9 °F 59.0 °F 81% 30.06 in 10.0 mi SSE 3.5 mph - N/A   Clear
10:53 PM 64.9 °F 60.1 °F 84% 30.05 in 10.0 mi SSE 4.6 mph - N/A   Clear
11:53 PM 64.0 °F 61.0 °F 90% 30.05 in 8.0 mi South 6.9 mph - N/A   Clear